CEB385 RPLL-RPMY

Flight info

Callsign CEB385
Flight time 1h 22m
Altitude 35000
Route IPATA2V IPATA W25 BATAY W8 MCT W6A SAGOL SAGOL4A
Aircraft A321/M-SDE3FGHIRWY/LB1

Departure

Time 2026-05-09 05:21
Airport Ninoy Aquino International Airport (RPLL)

Arrival

Time 2026-05-09 06:43
Airport Laguindingan International Airport (RPMY)
Time Latitude Longitude Altitude Speed Heading
2026-05-09 04:56 14.52375 121.00792 81 ft 0 kts 44°
2026-05-09 05:12 14.52366 121.00783 81 ft 2 kts 44°
2026-05-09 05:12 14.52355 121.00772 81 ft 2 kts 44°
2026-05-09 05:13 14.52344 121.00761 81 ft 2 kts 44°
2026-05-09 05:13 14.52333 121.00751 81 ft 2 kts 44°
2026-05-09 05:13 14.52323 121.00740 81 ft 2 kts 44°
2026-05-09 05:13 14.52313 121.00731 81 ft 0 kts 44°
2026-05-09 05:14 14.52304 121.00724 81 ft 2 kts
2026-05-09 05:14 14.52289 121.00727 81 ft 1 kts 323°
2026-05-09 05:14 14.52285 121.00731 81 ft 1 kts 308°
2026-05-09 05:14 14.52282 121.00734 81 ft 0 kts 313°
2026-05-09 05:17 14.52292 121.00724 81 ft 3 kts 315°
2026-05-09 05:17 14.52317 121.00699 81 ft 6 kts 315°
2026-05-09 05:17 14.52355 121.00660 81 ft 9 kts 315°
2026-05-09 05:17 14.52406 121.00607 81 ft 9 kts 314°
2026-05-09 05:18 14.52452 121.00560 81 ft 8 kts 315°
2026-05-09 05:18 14.52485 121.00518 81 ft 6 kts 289°
2026-05-09 05:18 14.52471 121.00472 81 ft 6 kts 228°
2026-05-09 05:18 14.52436 121.00433 81 ft 8 kts 226°
2026-05-09 05:19 14.52396 121.00398 81 ft 7 kts 194°
2026-05-09 05:19 14.52346 121.00423 81 ft 9 kts 136°
2026-05-09 05:19 14.52300 121.00470 81 ft 3 kts 134°
2026-05-09 05:19 14.52298 121.00472 81 ft 0 kts 134°
2026-05-09 05:20 14.52297 121.00473 81 ft 0 kts 134°
2026-05-09 05:20 14.52227 121.00545 81 ft 44 kts 135°
2026-05-09 05:20 14.51828 121.00959 82 ft 113 kts 134°
2026-05-09 05:20 14.51137 121.01671 149 ft 159 kts 133°
2026-05-09 05:21 14.50347 121.02479 642 ft 163 kts 132°
2026-05-09 05:21 14.49546 121.03305 1243 ft 165 kts 131°
2026-05-09 05:21 14.48760 121.04118 1868 ft 160 kts 130°
2026-05-09 05:21 14.47950 121.04962 2156 ft 169 kts 130°
2026-05-09 05:22 14.47105 121.05848 2399 ft 181 kts 130°
2026-05-09 05:22 14.46182 121.06812 2646 ft 194 kts 130°
2026-05-09 05:22 14.45199 121.07832 2890 ft 207 kts 131°
2026-05-09 05:22 14.44145 121.08926 3129 ft 220 kts 130°
2026-05-09 05:23 14.43095 121.10176 3238 ft 242 kts 124°
2026-05-09 05:23 14.42119 121.11635 3527 ft 256 kts 120°
2026-05-09 05:23 14.41119 121.13238 3966 ft 266 kts 120°
2026-05-09 05:23 14.40127 121.14841 4577 ft 268 kts 120°
2026-05-09 05:24 14.39123 121.16460 5243 ft 270 kts 121°
2026-05-09 05:24 14.38102 121.18105 5897 ft 273 kts 121°
2026-05-09 05:24 14.37085 121.19739 6534 ft 275 kts 121°
2026-05-09 05:24 14.36041 121.21413 7180 ft 277 kts 120°
2026-05-09 05:25 14.35013 121.23063 7805 ft 279 kts 120°
2026-05-09 05:25 14.33953 121.24766 8444 ft 282 kts 120°
2026-05-09 05:25 14.31827 121.28181 9637 ft 287 kts 120°
2026-05-09 05:26 14.30742 121.29925 10230 ft 290 kts 120°
2026-05-09 05:26 14.29627 121.31719 10552 ft 303 kts 120°
2026-05-09 05:26 14.28469 121.33581 10842 ft 317 kts 120°
2026-05-09 05:26 14.27258 121.35523 11259 ft 324 kts 120°
2026-05-09 05:27 14.26034 121.37486 11804 ft 326 kts 120°
2026-05-09 05:27 14.24817 121.39436 12336 ft 329 kts 120°
2026-05-09 05:27 14.23569 121.41435 12836 ft 331 kts 120°
2026-05-09 05:27 14.22314 121.43447 13326 ft 334 kts 120°
2026-05-09 05:28 14.21050 121.45470 13815 ft 337 kts 120°
2026-05-09 05:28 14.19778 121.47505 14275 ft 340 kts 120°
2026-05-09 05:28 14.18492 121.49564 14701 ft 343 kts 120°
2026-05-09 05:28 14.17194 121.51643 14896 ft 344 kts 120°
2026-05-09 05:29 14.15905 121.53702 14903 ft 343 kts 120°
2026-05-09 05:29 14.14603 121.55782 14918 ft 343 kts 120°
2026-05-09 05:29 14.13295 121.57873 14925 ft 344 kts 120°
2026-05-09 05:29 14.11984 121.59967 15167 ft 349 kts 120°
2026-05-09 05:30 14.10635 121.62056 15696 ft 349 kts 124°
2026-05-09 05:30 14.09062 121.63957 16146 ft 353 kts 132°
2026-05-09 05:30 14.07192 121.65657 16570 ft 357 kts 139°
2026-05-09 05:30 14.05192 121.67207 17022 ft 360 kts 141°
2026-05-09 05:31 14.03177 121.68729 17423 ft 363 kts 141°
2026-05-09 05:31 14.01106 121.70293 17822 ft 366 kts 141°
2026-05-09 05:31 13.99040 121.71859 18229 ft 368 kts 141°
2026-05-09 05:31 13.97004 121.73406 18622 ft 370 kts 141°
2026-05-09 05:32 13.94896 121.75010 19035 ft 372 kts 141°
2026-05-09 05:32 13.92832 121.76582 19416 ft 374 kts 141°
2026-05-09 05:32 13.90724 121.78188 19794 ft 376 kts 141°
2026-05-09 05:32 13.88597 121.79807 20175 ft 378 kts 142°
2026-05-09 05:33 13.86470 121.81427 20542 ft 381 kts 142°
2026-05-09 05:33 13.84319 121.83056 20908 ft 383 kts 142°
2026-05-09 05:33 13.82167 121.84680 21247 ft 386 kts 142°
2026-05-09 05:33 13.79981 121.86329 21606 ft 388 kts 142°
2026-05-09 05:34 13.77805 121.87972 21955 ft 390 kts 142°
2026-05-09 05:34 13.75604 121.89632 22298 ft 392 kts 142°
2026-05-09 05:34 13.73392 121.91300 22641 ft 394 kts 142°
2026-05-09 05:34 13.71185 121.92963 22965 ft 396 kts 142°
2026-05-09 05:35 13.68939 121.94655 23298 ft 398 kts 142°
2026-05-09 05:35 13.66715 121.96331 23626 ft 400 kts 142°
2026-05-09 05:35 13.64439 121.98046 23956 ft 403 kts 142°
2026-05-09 05:35 13.62175 121.99753 24271 ft 405 kts 142°
2026-05-09 05:36 13.59889 122.01474 24575 ft 407 kts 142°
2026-05-09 05:36 13.57591 122.03206 24875 ft 410 kts 142°
2026-05-09 05:36 13.55291 122.04937 25165 ft 412 kts 142°
2026-05-09 05:36 13.52936 122.06709 25459 ft 415 kts 142°
2026-05-09 05:37 13.50618 122.08456 25772 ft 417 kts 142°
2026-05-09 05:37 13.48274 122.10220 26059 ft 419 kts 142°
2026-05-09 05:37 13.45904 122.12003 26336 ft 421 kts 142°
2026-05-09 05:37 13.43526 122.13792 26633 ft 423 kts 142°
2026-05-09 05:38 13.41141 122.15584 26929 ft 425 kts 142°
2026-05-09 05:38 13.38765 122.17369 27229 ft 426 kts 142°
2026-05-09 05:38 13.36350 122.19185 27529 ft 428 kts 142°
2026-05-09 05:38 13.33932 122.21001 27810 ft 430 kts 142°
2026-05-09 05:39 13.31511 122.22820 28067 ft 432 kts 142°
2026-05-09 05:39 13.29076 122.24648 28319 ft 434 kts 142°
2026-05-09 05:39 13.26612 122.26498 28572 ft 437 kts 142°
2026-05-09 05:39 13.24151 122.28346 28830 ft 439 kts 143°
2026-05-09 05:40 13.21689 122.30196 29084 ft 441 kts 143°
2026-05-09 05:40 13.19163 122.32090 29333 ft 443 kts 143°
2026-05-09 05:40 13.16690 122.33945 29567 ft 445 kts 143°
2026-05-09 05:40 13.14173 122.35831 29834 ft 446 kts 143°
2026-05-09 05:41 13.11676 122.37699 30101 ft 448 kts 143°
2026-05-09 05:41 13.09134 122.39604 30345 ft 449 kts 143°
2026-05-09 05:41 13.06606 122.41499 30593 ft 451 kts 143°
2026-05-09 05:41 13.04079 122.43393 30835 ft 452 kts 143°
2026-05-09 05:42 13.01510 122.45314 31083 ft 453 kts 143°
2026-05-09 05:42 12.98961 122.47221 31392 ft 453 kts 143°
2026-05-09 05:42 12.96418 122.49127 31699 ft 452 kts 143°
2026-05-09 05:42 12.93894 122.51019 31992 ft 452 kts 144°
2026-05-09 05:43 12.91314 122.52949 32309 ft 451 kts 144°
2026-05-09 05:43 12.88802 122.54827 32651 ft 450 kts 144°
2026-05-09 05:43 12.86261 122.56727 33026 ft 448 kts 144°
2026-05-09 05:43 12.83707 122.58636 33397 ft 447 kts 144°
2026-05-09 05:44 12.81122 122.60567 33741 ft 447 kts 144°
2026-05-09 05:44 12.78588 122.62458 34049 ft 447 kts 144°
2026-05-09 05:44 12.76090 122.64323 34329 ft 447 kts 144°
2026-05-09 05:44 12.73572 122.66202 34610 ft 447 kts 145°
2026-05-09 05:45 12.71026 122.68102 34840 ft 448 kts 145°
2026-05-09 05:45 12.68516 122.69975 34848 ft 449 kts 145°
2026-05-09 05:45 12.63454 122.73750 34850 ft 449 kts 145°
2026-05-09 05:46 12.58385 122.77531 34851 ft 448 kts 145°
2026-05-09 05:46 12.53298 122.81321 34850 ft 448 kts 145°
2026-05-09 05:47 12.48244 122.85085 34846 ft 447 kts 145°
2026-05-09 05:47 12.43224 122.88822 34844 ft 447 kts 145°
2026-05-09 05:48 12.38231 122.92539 34837 ft 447 kts 145°
2026-05-09 05:48 12.33183 122.96294 34839 ft 447 kts 145°
2026-05-09 05:49 12.28181 123.00012 34840 ft 446 kts 145°
2026-05-09 05:49 12.23151 123.03750 34833 ft 446 kts 145°
2026-05-09 05:50 12.18098 123.07502 34834 ft 446 kts 146°
2026-05-09 05:50 12.13079 123.11227 34839 ft 446 kts 145°
2026-05-09 05:51 12.08046 123.14961 34837 ft 446 kts 145°
2026-05-09 05:51 12.02994 123.18707 34840 ft 447 kts 145°
2026-05-09 05:52 11.97965 123.22436 34851 ft 447 kts 145°
2026-05-09 05:52 11.92883 123.26203 34856 ft 447 kts 145°
2026-05-09 05:53 11.87803 123.29966 34858 ft 447 kts 145°
2026-05-09 05:53 11.82719 123.33730 34855 ft 446 kts 146°
2026-05-09 05:54 11.77657 123.37475 34851 ft 446 kts 146°
2026-05-09 05:54 11.72602 123.41213 34851 ft 446 kts 145°
2026-05-09 05:55 11.67560 123.44939 34848 ft 447 kts 145°
2026-05-09 05:55 11.62499 123.48679 34847 ft 447 kts 145°
2026-05-09 05:56 11.57450 123.52408 34846 ft 447 kts 145°
2026-05-09 05:56 11.52360 123.56166 34842 ft 447 kts 145°
2026-05-09 05:57 11.47315 123.59890 34846 ft 446 kts 145°
2026-05-09 05:57 11.42252 123.63625 34845 ft 446 kts 146°
2026-05-09 05:58 11.37171 123.67370 34843 ft 446 kts 146°
2026-05-09 05:58 11.32088 123.71114 34842 ft 447 kts 146°
2026-05-09 05:59 11.27044 123.74829 34842 ft 447 kts 146°
2026-05-09 05:59 11.21983 123.78556 34841 ft 447 kts 146°
2026-05-09 06:00 11.16729 123.81924 34840 ft 445 kts 154°
2026-05-09 06:00 11.11022 123.84459 34838 ft 443 kts 162°
2026-05-09 06:01 11.05030 123.86083 34842 ft 440 kts 171°
2026-05-09 06:01 10.98968 123.87145 34839 ft 440 kts 172°
2026-05-09 06:02 10.92856 123.88191 34839 ft 441 kts 172°
2026-05-09 06:02 10.86749 123.89246 34838 ft 441 kts 172°
2026-05-09 06:03 10.80661 123.90300 34837 ft 440 kts 172°
2026-05-09 06:03 10.74617 123.91348 34837 ft 439 kts 172°
2026-05-09 06:04 10.68527 123.92403 34839 ft 439 kts 172°
2026-05-09 06:04 10.62447 123.93459 34844 ft 439 kts 172°
2026-05-09 06:05 10.56394 123.94508 34850 ft 439 kts 172°
2026-05-09 06:05 10.50325 123.95557 34857 ft 439 kts 172°
2026-05-09 06:06 10.44277 123.96603 34859 ft 439 kts 172°
2026-05-09 06:06 10.41212 123.97131 34631 ft 439 kts 172°
2026-05-09 06:06 10.38218 123.97649 34345 ft 437 kts 172°
2026-05-09 06:07 10.35205 123.98171 34055 ft 434 kts 171°
2026-05-09 06:07 10.32254 123.98762 33769 ft 433 kts 168°
2026-05-09 06:07 10.29349 123.99522 33479 ft 433 kts 165°
2026-05-09 06:07 10.26465 124.00433 33061 ft 434 kts 163°
2026-05-09 06:08 10.23550 124.01390 32493 ft 436 kts 163°
2026-05-09 06:08 10.20678 124.02337 31851 ft 438 kts 163°
2026-05-09 06:08 10.17727 124.03310 31126 ft 440 kts 163°
2026-05-09 06:08 10.14806 124.04273 30443 ft 440 kts 163°
2026-05-09 06:09 10.11905 124.05228 29952 ft 436 kts 162°
2026-05-09 06:09 10.09034 124.06172 29454 ft 432 kts 163°
2026-05-09 06:09 10.06152 124.07120 28956 ft 428 kts 162°
2026-05-09 06:09 10.03325 124.08048 28474 ft 424 kts 162°
2026-05-09 06:10 10.00503 124.08974 28010 ft 420 kts 162°
2026-05-09 06:10 9.97717 124.09889 27567 ft 416 kts 162°
2026-05-09 06:10 9.94959 124.10794 27127 ft 411 kts 162°
2026-05-09 06:10 9.92264 124.11678 26687 ft 407 kts 162°
2026-05-09 06:11 9.89582 124.12558 26230 ft 404 kts 161°
2026-05-09 06:11 9.86880 124.13444 25772 ft 400 kts 161°
2026-05-09 06:11 9.84217 124.14318 25319 ft 397 kts 161°
2026-05-09 06:11 9.81523 124.15202 24858 ft 394 kts 161°
2026-05-09 06:12 9.78916 124.16057 24408 ft 391 kts 161°
2026-05-09 06:12 9.76349 124.16899 23962 ft 388 kts 160°
2026-05-09 06:12 9.73764 124.17746 23521 ft 385 kts 160°
2026-05-09 06:12 9.71245 124.18572 23085 ft 382 kts 160°
2026-05-09 06:13 9.68686 124.19410 22597 ft 381 kts 160°
2026-05-09 06:13 9.66157 124.20239 22132 ft 379 kts 159°
2026-05-09 06:13 9.63644 124.21062 21685 ft 376 kts 159°
2026-05-09 06:13 9.61145 124.21883 21226 ft 374 kts 159°
2026-05-09 06:14 9.58638 124.22705 20743 ft 373 kts 159°
2026-05-09 06:14 9.56158 124.23518 20262 ft 372 kts 159°
2026-05-09 06:14 9.53675 124.24332 19768 ft 372 kts 159°
2026-05-09 06:14 9.51228 124.25133 19279 ft 372 kts 159°
2026-05-09 06:15 9.48732 124.25951 18774 ft 371 kts 159°
2026-05-09 06:15 9.46276 124.26756 18279 ft 371 kts 159°
2026-05-09 06:15 9.43793 124.27568 17850 ft 367 kts 159°
2026-05-09 06:15 9.41380 124.28356 17472 ft 363 kts 159°
2026-05-09 06:16 9.38981 124.29140 17039 ft 361 kts 159°
2026-05-09 06:16 9.36571 124.29929 16613 ft 358 kts 159°
2026-05-09 06:16 9.34197 124.30708 16100 ft 353 kts 159°
2026-05-09 06:16 9.31889 124.31464 15566 ft 349 kts 159°
2026-05-09 06:17 9.29574 124.32220 15114 ft 343 kts 159°
2026-05-09 06:17 9.27318 124.32957 14690 ft 336 kts 159°
2026-05-09 06:17 9.25119 124.33675 14273 ft 334 kts 159°
2026-05-09 06:17 9.22868 124.34412 13846 ft 333 kts 160°
2026-05-09 06:18 9.20652 124.35137 13428 ft 333 kts 160°
2026-05-09 06:18 9.18417 124.35867 12999 ft 332 kts 160°
2026-05-09 06:18 9.16199 124.36591 12583 ft 332 kts 160°
2026-05-09 06:18 9.13999 124.37309 12169 ft 331 kts 160°
2026-05-09 06:19 9.11777 124.38032 11719 ft 331 kts 160°
2026-05-09 06:19 9.09593 124.38745 11276 ft 330 kts 160°
2026-05-09 06:19 9.07410 124.39457 10833 ft 329 kts 159°
2026-05-09 06:19 9.05186 124.40182 10411 ft 327 kts 159°
2026-05-09 06:20 9.03004 124.40675 10131 ft 322 kts 175°
2026-05-09 06:20 9.00806 124.40303 10009 ft 314 kts 198°
2026-05-09 06:20 8.98827 124.39404 9790 ft 308 kts 203°
2026-05-09 06:20 8.96909 124.38465 9403 ft 307 kts 204°
2026-05-09 06:21 8.94979 124.37526 9029 ft 306 kts 203°
2026-05-09 06:21 8.94381 124.37238 8913 ft 305 kts 203°
2026-05-09 06:21 8.93289 124.36716 8697 ft 304 kts 203°
2026-05-09 06:21 8.91364 124.35805 8325 ft 303 kts 203°
2026-05-09 06:22 8.89456 124.34908 7957 ft 301 kts 202°
2026-05-09 06:22 8.87533 124.34006 7598 ft 299 kts 202°
2026-05-09 06:22 8.85612 124.33105 7223 ft 297 kts 203°
2026-05-09 06:22 8.83738 124.32225 6870 ft 295 kts 203°
2026-05-09 06:23 8.81849 124.31338 6503 ft 293 kts 203°
2026-05-09 06:23 8.79975 124.30456 6143 ft 291 kts 203°
2026-05-09 06:23 8.78137 124.29593 5798 ft 289 kts 203°
2026-05-09 06:23 8.76301 124.28732 5455 ft 287 kts 203°
2026-05-09 06:24 8.74496 124.27885 5107 ft 285 kts 203°
2026-05-09 06:24 8.72679 124.27033 4756 ft 284 kts 203°
2026-05-09 06:24 8.70899 124.26205 4400 ft 283 kts 201°
2026-05-09 06:24 8.68982 124.25721 4038 ft 279 kts 182°
2026-05-09 06:25 8.67062 124.25764 3775 ft 272 kts 173°
2026-05-09 06:25 8.65197 124.25923 3729 ft 258 kts 172°
2026-05-09 06:25 8.63456 124.26080 3675 ft 246 kts 173°
2026-05-09 06:25 8.61783 124.26221 3609 ft 233 kts 172°
2026-05-09 06:26 8.60299 124.26672 3489 ft 214 kts 142°
2026-05-09 06:26 8.59544 124.27839 3277 ft 193 kts 96°
2026-05-09 06:26 8.59698 124.29117 3157 ft 174 kts 75°
2026-05-09 06:26 8.59911 124.30257 3038 ft 158 kts 79°
2026-05-09 06:27 8.60054 124.31349 2846 ft 156 kts 80°
2026-05-09 06:27 8.60168 124.32433 2564 ft 154 kts 81°
2026-05-09 06:27 8.60267 124.33501 2362 ft 153 kts 81°
2026-05-09 06:27 8.60358 124.34572 2156 ft 153 kts 82°
2026-05-09 06:28 8.60445 124.35638 1951 ft 152 kts 82°
2026-05-09 06:28 8.60531 124.36706 1748 ft 152 kts 82°
2026-05-09 06:28 8.60616 124.37781 1544 ft 152 kts 82°
2026-05-09 06:28 8.60698 124.38832 1346 ft 151 kts 82°
2026-05-09 06:29 8.60782 124.39901 1148 ft 151 kts 82°
2026-05-09 06:29 8.60863 124.40946 951 ft 150 kts 82°
2026-05-09 06:29 8.60946 124.42007 748 ft 150 kts 82°
2026-05-09 06:29 8.61026 124.43053 552 ft 149 kts 82°
2026-05-09 06:30 8.61106 124.44097 282 ft 147 kts 83°
2026-05-09 06:30 8.61168 124.45140 395 ft 155 kts 83°
2026-05-09 06:30 8.61252 124.46233 1094 ft 159 kts 81°
2026-05-09 06:30 8.61609 124.47192 1986 ft 144 kts 43°
2026-05-09 06:31 8.62449 124.47465 2604 ft 125 kts 358°
2026-05-09 06:31 8.63270 124.47309 2986 ft 119 kts 352°
2026-05-09 06:31 8.64132 124.47144 3167 ft 130 kts 354°
2026-05-09 06:31 8.65094 124.46983 3310 ft 150 kts 354°
2026-05-09 06:32 8.66215 124.46816 3361 ft 177 kts 355°
2026-05-09 06:32 8.67540 124.46629 3358 ft 199 kts 354°
2026-05-09 06:32 8.69000 124.46426 3267 ft 222 kts 354°
2026-05-09 06:33 8.72147 124.45992 3246 ft 229 kts 354°
2026-05-09 06:33 8.73728 124.45774 3263 ft 230 kts 353°
2026-05-09 06:33 8.75252 124.45203 3260 ft 235 kts 327°
2026-05-09 06:34 8.76793 124.42344 3274 ft 244 kts 272°
2026-05-09 06:34 8.76462 124.40647 3277 ft 247 kts 248°
2026-05-09 06:34 8.75759 124.39056 3277 ft 248 kts 246°
2026-05-09 06:34 8.75047 124.37483 3270 ft 247 kts 246°
2026-05-09 06:35 8.74329 124.35894 3272 ft 248 kts 246°
2026-05-09 06:35 8.73612 124.34299 3273 ft 246 kts 246°
2026-05-09 06:35 8.72916 124.32751 3273 ft 232 kts 246°
2026-05-09 06:35 8.72271 124.31315 3335 ft 211 kts 246°
2026-05-09 06:36 8.71681 124.29999 3270 ft 193 kts 246°
2026-05-09 06:36 8.71144 124.28802 3235 ft 175 kts 247°
2026-05-09 06:36 8.70644 124.27699 3223 ft 174 kts 243°
2026-05-09 06:36 8.69917 124.26724 3098 ft 172 kts 222°
2026-05-09 06:37 8.68926 124.26061 2976 ft 171 kts 201°
2026-05-09 06:37 8.67777 124.25761 2859 ft 169 kts 181°
2026-05-09 06:37 8.66596 124.25787 2747 ft 168 kts 172°
2026-05-09 06:37 8.65428 124.25899 2629 ft 168 kts 171°
2026-05-09 06:38 8.64243 124.26016 2511 ft 168 kts 171°
2026-05-09 06:38 8.63066 124.26123 2394 ft 167 kts 171°
2026-05-09 06:38 8.61899 124.26220 2274 ft 167 kts 172°
2026-05-09 06:38 8.60793 124.26470 2136 ft 162 kts 144°
2026-05-09 06:39 8.60035 124.27255 2023 ft 153 kts 111°
2026-05-09 06:39 8.59816 124.28292 1946 ft 150 kts 85°
2026-05-09 06:39 8.59902 124.29356 1863 ft 151 kts 81°
2026-05-09 06:39 8.60009 124.30423 1864 ft 152 kts 81°
2026-05-09 06:40 8.60109 124.31492 1860 ft 152 kts 82°
2026-05-09 06:40 8.60202 124.32563 1858 ft 152 kts 82°
2026-05-09 06:40 8.60290 124.33641 1858 ft 152 kts 82°
2026-05-09 06:40 8.60376 124.34712 1856 ft 152 kts 82°
2026-05-09 06:41 8.60461 124.35789 1801 ft 153 kts 82°
2026-05-09 06:41 8.60545 124.36857 1653 ft 152 kts 82°
2026-05-09 06:41 8.60629 124.37939 1470 ft 152 kts 82°
2026-05-09 06:41 8.60714 124.39012 1282 ft 151 kts 82°
2026-05-09 06:42 8.60795 124.40063 1092 ft 151 kts 82°
2026-05-09 06:42 8.60876 124.41113 894 ft 150 kts 82°
2026-05-09 06:42 8.60957 124.42167 694 ft 150 kts 82°
2026-05-09 06:42 8.61033 124.43215 458 ft 148 kts 84°
2026-05-09 06:43 8.61110 124.44261 330 ft 147 kts 81°
2026-05-09 06:43 8.61189 124.45270 204 ft 142 kts 83°
2026-05-09 06:43 8.61258 124.46104 195 ft 88 kts 86°
2026-05-09 06:43 8.61280 124.46422 195 ft 20 kts 84°
2026-05-09 06:44 8.61270 124.46514 195 ft 8 kts 113°
2026-05-09 06:44 8.61253 124.46564 195 ft 7 kts 90°
2026-05-09 06:44 8.61286 124.46566 195 ft 8 kts 294°
2026-05-09 06:44 8.61287 124.46500 195 ft 10 kts 265°
2026-05-09 06:45 8.61281 124.46420 195 ft 12 kts 266°
2026-05-09 06:45 8.61274 124.46322 195 ft 15 kts 265°
2026-05-09 06:45 8.61265 124.46216 195 ft 13 kts 265°
2026-05-09 06:45 8.61257 124.46114 195 ft 14 kts 265°
2026-05-09 06:46 8.61249 124.46015 195 ft 12 kts 259°
2026-05-09 06:46 8.61187 124.45964 195 ft 11 kts 179°
2026-05-09 06:46 8.61124 124.45969 195 ft 10 kts 175°
2026-05-09 06:46 8.61052 124.45975 195 ft 10 kts 176°
2026-05-09 06:47 8.61002 124.45935 195 ft 8 kts 264°
2026-05-09 06:47 8.61001 124.45882 195 ft 9 kts 270°
2026-05-09 06:47 8.60968 124.45838 195 ft 7 kts 190°
2026-05-09 06:47 8.60933 124.45839 195 ft 5 kts 175°
2026-05-09 06:48 8.60914 124.45840 195 ft 0 kts 175°